SCP
0 0 0 0 0 0 0 0 0 0 0 0 0 0 0 0 0 0 0 0 0 0 0 0 0 0 0 0 0 0 0 0 0 0 0 0 0 0 0 1 0 0 1
0 0 0 0 0 0 0 0 0 0 0 0 0 0 0 0 0 0 0 0 0 0 0 0 0 0 0 0 0 0 0 0 0 0 0 0 0 0 0 0 1 1 0
0 0 0 0 0 0 0 0 0 0 0 0 0 0 0 0 0 0 0 0 0 0 0 0 0 0 0 0 0 0 0 0 0 0 0 0 0 0 0 0 0 1 1
0 0 0 0 0 0 0 0 0 0 0 0 0 0 0 0 0 0 0 0 0 0 0 0 0 0 0 0 0 0 0 0 0 0 0 0 0 0 0 0 0 0 1
0 0 0 0 0 0 0 0 0 0 0 0 0 0 0 0 0 0 0 0 0 0 0 0 0 0 0 0 0 0 0 0 0 0 0 0 0 0 0 0 0 0 0
0 0 0 0 0 0 0 0 0 0 0 0 0 0 0 0 0 0 0 0 0 0 0 0 0 0 0 0 0 0 0 0 0 0 0 0 0 0 0 0 0 0 0
0 0 0 0 0 0 0 0 0 0 0 0 0 0 0 0 0 0 0 0 0 0 0 0 0 0 0 0 0 0 0 0 0 0 0 0 0 0 0 0 0 0 0
0 0 0 0 0 0 0 0 0 0 0 0 0 0 0 0 0 0 0 0 0 0 0 0 0 0 0 0 0 0 0 0 0 0 0 0 0 0 0 0 0 0 0
0 0 0 0 0 0 0 0 0 0 0 0 0 0 0 0 0 0 0 0 0 0 0 0 0 0 0 0 0 0 0 0 0 0 0 0 0 0 0 0 0 0 0
0 0 0 0 0 0 0 0 0 0 0 0 0 0 0 0 0 0 0 0 0 0 0 0 0 0 0 0 0 0 0 0 0 0 0 0 0 0 0 0 0 0 0
0 0 0 0 0 0 0 0 0 0 0 0 0 0 0 0 0 0 0 0 0 0 0 0 0 0 0 0 0 0 0 0 0 0 0 -0 -0 0 0 0 0 0 0
0 0 0 0 0 0 0 0 0 0 0 0 0 0 0 0 0 0 0 0 0 0 0 0 0 0 0 0 0 0 0 0 0 -0 0 0 -0 -0 -0 0 0 0 0
0 0 0 0 0 0 0 0 0 0 0 0 0 0 0 0 0 0 0 0 0 0 0 0 0 0 0 0 0 0 0 0 0 0 -0 0 0 -0 -0 -0 0 0 0
0 0 0 0 0 0 0 0 0 0 0 0 0 0 0 0 0 0 0 0 0 0 0 0 0 0 0 0 0 0 0 0 0 0 0 0 0 0 -0 -0 0 0 0
0 0 0 0 0 0 0 0 0 0 0 0 0 0 0 0 0 0 0 0 0 0 0 0 0 0 0 0 0 0 0 0 0 0 0 0 0 0 0 -0 -0 0 0
0 0 0 0 0 0 0 0 0 0 0 0 0 0 0 0 0 0 0 0 0 0 0 0 0 0 0 0 0 0 0 0 0 0 0 0 0 0 0 -0 0 0 0
0 0 0 0 0 0 0 0 0 0 0 0 0 0 0 0 0 0 0 0 0 0 0 0 0 0 0 0 0 0 0 0 0 0 0 0 0 0 0 0 0 0 0
0 0 0 0 0 0 0 0 0 0 0 0 0 0 0 0 0 0 0 0 0 0 0 0 0 0 0 0 0 0 0 0 0 0 0 0 0 -0 0 -0 0 0 0
0 0 0 0 0 0 0 0 0 0 0 0 0 0 0 0 0 0 0 0 0 0 0 0 0 0 0 0 0 0 0 0 0 0 0 0 0 0 -0 0 0 0 0
0 0 0 0 0 0 0 0 0 0 0 0 0 0 0 0 0 0 0 0 0 0 0 0 0 0 0 0 0 0 0 0 0 0 0 0 0 0 -0 -0 0 0 0
0 0 0 0 0 0 0 0 0 0 0 0 0 0 0 0 0 0 0 0 0 0 0 0 0 0 0 0 0 0 0 0 0 0 0 0 0 -0 0 0 0 -0 0
0 0 0 0 0 0 0 0 0 0 0 0 0 0 0 0 0 0 0 0 0 0 0 0 0 0 0 0 0 0 0 0 0 0 0 0 0 -0 -0 0 -0 0 0
0 0 0 0 0 0 0 0 0 0 0 0 0 0 0 0 0 0 0 0 0 0 0 0 0 0 0 0 0 0 0 0 0 0 0 0 0 0 0 0 0 -0 -0
0 0 0 0 0 0 0 0 0 0 0 0 0 0 0 0 0 0 0 0 0 0 0 0 0 0 0 0 0 0 0 0 0 0 0 0 0 0 0 0 0 0 -0
0 0 0 0 0 0 0 0 0 0 0 0 0 0 0 0 0 0 0 0 0 0 0 0 0 0 0 0 0 0 0 0 0 0 0 0 0 0 0 0 0 -0 -0
0 0 0 0 0 0 0 0 0 0 0 0 0 0 0 0 0 0 0 0 0 0 0 0 0 0 0 0 0 0 0 0 0 0 0 0 0 0 0 0 0 0 0
Wind_Speed_500mb
24 22 20 18 16 15 15 16 16 17 16 16 19 19 19 19 19 20 21 21 21 23 25 25 29 37 42 45 47 48 50 53 57 62 67 74 77 74 68 66 69 69 71
26 23 21 18 16 16 16 16 16 17 17 16 17 18 19 19 18 19 19 18 22 18 23 36 37 35 41 44 48 51 54 57 60 63 63 70 77 82 83 76 71 75 76
27 25 21 18 17 17 16 16 16 17 19 19 17 16 16 17 17 16 16 16 15 33 31 39 44 44 47 52 55 58 62 64 67 71 71 68 68 77 85 92 84 76 78
29 25 21 19 19 17 17 16 16 18 19 19 17 17 16 17 15 12 17 14 38 30 38 38 43 50 56 54 60 65 69 65 61 64 69 66 63 58 63 79 98 94 82
31 28 23 21 19 17 17 16 17 18 19 20 19 16 17 16 13 14 6 38 29 40 35 47 48 52 61 61 62 65 67 70 68 56 54 54 56 62 67 63 65 95 103
33 29 24 22 20 18 16 16 17 19 20 22 21 18 17 15 13 4 36 24 39 32 46 45 56 57 58 59 62 66 69 70 66 58 57 58 58 60 63 67 72 69 81
35 30 26 22 20 18 17 16 17 19 20 24 25 24 14 11 5 25 29 41 38 43 50 61 63 63 62 59 60 65 70 75 74 58 62 61 60 63 67 66 69 68 73
37 31 26 23 21 19 17 17 17 19 20 20 23 25 13 14 8 37 39 42 47 58 60 69 67 64 66 70 65 59 58 64 71 72 66 64 64 64 63 65 74 75 72
39 32 27 24 22 19 18 17 18 19 20 19 20 13 9 8 46 30 36 46 52 63 75 67 65 62 59 57 58 56 58 61 59 63 66 65 66 66 67 68 69 72 80
43 35 30 25 23 21 18 19 19 20 20 19 20 20 22 25 16 24 42 48 61 69 63 62 51 50 49 52 53 54 57 63 63 63 64 64 66 71 72 69 68 68 74
49 41 34 27 24 22 20 20 20 22 21 20 21 24 28 33 31 34 46 61 67 64 62 54 45 40 43 50 55 61 63 66 69 68 68 68 66 67 73 75 74 73 72
56 48 39 30 27 24 22 22 22 23 23 22 23 25 28 31 38 39 53 62 63 60 81 54 42 39 42 49 54 60 67 69 65 66 71 73 72 71 70 73 74 75 77
66 57 45 35 28 26 26 25 25 25 26 25 25 26 30 34 40 44 52 57 51 77 68 44 45 48 52 61 67 69 68 66 63 63 68 74 75 74 73 72 74 74 75
62 54 47 41 34 31 29 29 28 28 28 27 26 27 30 35 40 44 48 51 59 41 66 62 55 52 64 69 71 70 71 66 66 66 70 78 75 75 75 74 74 72 74
60 54 53 47 41 36 34 33 31 31 31 30 28 29 32 36 40 43 47 48 44 28 47 62 64 64 70 74 68 68 69 71 69 69 72 77 75 73 72 72 70 70 70
64 61 59 52 48 42 38 36 35 35 34 32 30 30 32 36 40 44 48 49 48 49 40 69 71 76 75 75 75 73 74 77 77 74 74 78 73 69 68 65 63 67 64
72 69 63 57 53 46 43 40 38 38 36 34 32 32 32 37 41 45 49 50 52 55 60 76 71 73 78 83 79 82 82 83 84 78 72 77 71 61 54 50 47 56 60
75 71 66 62 57 52 48 45 41 40 38 36 33 33 32 38 41 45 50 52 54 56 58 71 73 72 74 79 85 91 88 82 78 75 67 62 64 55 48 44 46 47 48
76 74 71 67 61 57 52 46 43 43 41 37 35 34 33 38 40 44 51 54 54 55 55 63 77 73 76 79 88 90 88 86 74 74 58 58 62 51 39 32 35 43 37
75 77 74 69 63 58 54 49 48 46 43 40 37 34 34 37 40 44 50 54 54 54 53 58 65 71 72 75 88 97 100 87 81 64 59 67 51 45 33 30 35 34 31
74 74 72 71 65 63 60 54 51 48 44 41 38 36 33 35 40 44 49 51 54 51 49 56 64 61 70 82 87 90 89 88 82 62 76 57 54 39 23 25 30 22 32
71 73 76 73 70 69 62 55 52 50 46 44 40 36 33 34 37 43 48 51 49 46 44 51 57 62 66 71 79 82 80 78 71 67 74 50 48 29 11 12 17 19 15
68 73 77 78 76 71 63 59 54 52 49 45 40 38 34 32 34 39 44 48 44 35 35 45 55 56 63 66 71 73 69 64 58 55 60 47 43 32 18 5 10 13 10
70 72 76 79 77 74 65 61 57 53 52 47 43 40 34 31 33 37 42 45 41 35 37 43 51 51 53 56 57 59 60 59 46 39 43 34 43 45 29 27 5 9 5
77 77 78 78 79 76 68 64 61 58 56 49 44 40 34 30 33 36 40 42 41 33 35 37 40 44 45 46 51 51 48 49 47 34 26 38 37 35 36 35 15 6 9
77 83 83 78 76 75 69 66 65 61 57 51 46 41 35 30 30 33 37 38 40 35 31 28 32 34 37 41 44 44 42 42 40 22 25 37 30 30 14 31 36 24 24
Wind_Direction_500mb
218 223 230 236 242 255 265 271 274 279 286 295 300 306 307 308 312 314 317 316 319 318 314 312 314 311 305 300 295 292 289 287 282 274 267 260 258 257 257 255 251 251 250
217 221 227 235 245 256 266 273 281 287 292 296 300 304 308 312 315 317 314 315 317 320 316 310 311 311 309 302 297 292 290 286 281 279 277 269 261 255 252 256 253 249 249
216 221 223 234 248 260 269 278 284 292 296 305 306 307 309 309 311 312 305 319 329 315 315 319 317 320 316 312 305 299 293 286 279 274 271 271 269 264 254 248 252 254 249
216 218 225 232 244 258 267 276 287 294 300 305 310 312 312 310 309 304 308 305 322 321 319 325 326 317 313 317 309 301 295 292 289 282 275 272 273 275 267 257 247 246 251
215 218 224 235 244 255 268 278 288 296 303 309 314 316 310 305 302 306 302 319 319 320 324 327 326 324 316 312 307 302 297 294 292 296 293 288 284 278 275 268 263 248 243
214 220 225 233 243 252 264 280 291 300 310 313 318 320 311 299 303 197 321 316 325 329 327 329 327 324 318 313 309 305 301 296 293 296 293 290 286 283 277 270 265 263 254
215 219 225 229 239 252 266 280 294 305 313 317 322 329 320 302 259 325 330 328 332 328 335 332 333 327 323 317 312 307 300 295 294 299 294 293 289 282 276 272 262 260 261
216 219 225 230 237 250 265 281 292 302 308 320 333 340 326 313 256 325 332 332 332 336 333 334 333 330 329 328 326 321 313 303 299 296 295 291 290 286 280 275 267 261 259
217 221 224 229 239 250 265 277 288 297 304 316 331 355 330 297 322 325 332 332 330 332 330 331 333 333 330 330 332 331 328 325 320 309 302 296 291 287 286 281 274 270 260
217 220 224 230 237 248 259 272 282 289 294 304 315 324 325 318 317 314 320 327 326 327 327 335 334 333 333 334 332 330 327 322 322 318 312 302 292 287 284 279 276 271 266
217 219 222 228 237 246 255 264 274 281 285 291 302 314 322 324 324 317 314 319 322 325 329 336 340 336 336 335 331 329 326 320 313 311 309 303 294 288 284 280 274 270 268
218 219 221 226 237 248 256 260 268 274 276 280 293 306 315 318 320 318 311 316 318 325 323 337 347 343 335 330 326 326 323 323 319 312 304 298 291 287 284 281 274 269 260
218 219 222 229 239 247 255 260 264 267 270 275 287 300 311 318 319 318 314 315 311 320 326 335 345 339 332 330 327 324 320 321 319 315 313 304 290 284 281 278 273 268 260
224 224 225 229 237 247 255 258 260 264 265 270 282 295 307 314 317 317 314 314 316 315 319 327 337 336 332 330 329 324 320 316 312 315 323 318 297 285 279 274 271 266 262
225 226 227 232 238 245 252 255 258 260 261 266 278 291 304 310 314 316 315 313 307 309 311 316 322 328 329 330 330 326 325 322 318 319 325 323 306 291 281 273 268 264 261
225 227 231 234 239 243 249 254 255 255 257 263 274 286 298 306 314 314 316 310 303 300 281 305 315 320 327 329 336 336 333 328 326 328 323 321 313 299 288 276 264 266 262
229 231 234 237 240 243 248 251 252 251 254 259 269 280 295 304 312 315 313 310 304 302 289 304 311 319 323 329 335 340 335 334 332 326 322 321 318 299 291 279 270 266 265
231 234 236 238 239 241 245 249 249 251 252 257 265 277 292 302 311 313 313 311 306 304 296 296 309 316 321 330 337 334 333 335 331 331 324 321 320 311 290 280 272 269 267
232 234 236 237 238 241 244 247 247 247 249 253 261 274 289 299 309 313 313 314 309 301 296 296 304 316 322 333 329 330 333 334 337 339 334 327 322 319 306 294 287 287 267
235 236 237 239 239 241 243 244 244 244 244 249 257 270 283 298 307 313 315 317 311 301 297 300 302 313 323 326 328 330 331 337 339 341 340 336 326 322 304 301 294 272 267
238 240 240 240 239 240 241 242 242 242 241 246 254 265 280 296 306 315 316 319 313 304 299 304 305 314 321 325 327 329 329 334 340 344 338 345 339 330 302 279 298 285 255
239 239 239 239 241 241 242 242 240 239 239 243 251 262 277 293 308 315 318 319 314 302 298 298 305 307 314 320 325 328 330 336 337 347 342 351 346 338 340 280 286 278 300
242 241 241 240 241 241 240 240 238 238 237 241 248 259 274 291 306 313 317 318 317 304 279 286 291 301 312 324 326 328 330 331 332 340 337 349 3 15 35 139 250 250 254
242 244 243 242 241 241 238 238 236 235 236 239 245 256 270 288 304 312 317 318 324 317 299 284 291 306 317 323 324 329 328 329 333 336 340 333 360 12 40 73 67 126 209
245 245 245 242 240 239 235 234 232 233 233 236 242 252 265 283 299 312 317 321 324 324 309 296 299 308 317 323 328 329 331 337 341 347 346 338 341 354 24 58 69 92 92
247 248 247 244 241 238 234 233 232 231 231 233 239 247 258 275 294 308 315 323 325 325 318 309 309 309 320 332 330 332 340 344 345 343 342 339 335 0 7 35 77 101 89
Wind_Speed_850mb
24 22 20 18 16 15 15 16 16 17 16 16 19 19 19 19 19 20 21 21 21 23 25 25 29 37 42 45 47 48 50 53 57 62 67 74 77 74 68 66 69 69 71
26 23 21 18 16 16 16 16 16 17 17 16 17 18 19 19 18 19 19 18 22 18 23 36 37 35 41 44 48 51 54 57 60 63 63 70 77 82 83 76 71 75 76
27 25 21 18 17 17 16 16 16 17 19 19 17 16 16 17 17 16 16 16 15 33 31 39 44 44 47 52 55 58 62 64 67 71 71 68 68 77 85 92 84 76 78
29 25 21 19 19 17 17 16 16 18 19 19 17 17 16 17 15 12 17 14 38 30 38 38 43 50 56 54 60 65 69 65 61 64 69 66 63 58 63 79 98 94 82
31 28 23 21 19 17 17 16 17 18 19 20 19 16 17 16 13 14 6 38 29 40 35 47 48 52 61 61 62 65 67 70 68 56 54 54 56 62 67 63 65 95 103
33 29 24 22 20 18 16 16 17 19 20 22 21 18 17 15 13 4 36 24 39 32 46 45 56 57 58 59 62 66 69 70 66 58 57 58 58 60 63 67 72 69 81
35 30 26 22 20 18 17 16 17 19 20 24 25 24 14 11 5 25 29 41 38 43 50 61 63 63 62 59 60 65 70 75 74 58 62 61 60 63 67 66 69 68 73
37 31 26 23 21 19 17 17 17 19 20 20 23 25 13 14 8 37 39 42 47 58 60 69 67 64 66 70 65 59 58 64 71 72 66 64 64 64 63 65 74 75 72
39 32 27 24 22 19 18 17 18 19 20 19 20 13 9 8 46 30 36 46 52 63 75 67 65 62 59 57 58 56 58 61 59 63 66 65 66 66 67 68 69 72 80
43 35 30 25 23 21 18 19 19 20 20 19 20 20 22 25 16 24 42 48 61 69 63 62 51 50 49 52 53 54 57 63 63 63 64 64 66 71 72 69 68 68 74
49 41 34 27 24 22 20 20 20 22 21 20 21 24 28 33 31 34 46 61 67 64 62 54 45 40 43 50 55 61 63 66 69 68 68 68 66 67 73 75 74 73 72
56 48 39 30 27 24 22 22 22 23 23 22 23 25 28 31 38 39 53 62 63 60 81 54 42 39 42 49 54 60 67 69 65 66 71 73 72 71 70 73 74 75 77
66 57 45 35 28 26 26 25 25 25 26 25 25 26 30 34 40 44 52 57 51 77 68 44 45 48 52 61 67 69 68 66 63 63 68 74 75 74 73 72 74 74 75
62 54 47 41 34 31 29 29 28 28 28 27 26 27 30 35 40 44 48 51 59 41 66 62 55 52 64 69 71 70 71 66 66 66 70 78 75 75 75 74 74 72 74
60 54 53 47 41 36 34 33 31 31 31 30 28 29 32 36 40 43 47 48 44 28 47 62 64 64 70 74 68 68 69 71 69 69 72 77 75 73 72 72 70 70 70
64 61 59 52 48 42 38 36 35 35 34 32 30 30 32 36 40 44 48 49 48 49 40 69 71 76 75 75 75 73 74 77 77 74 74 78 73 69 68 65 63 67 64
72 69 63 57 53 46 43 40 38 38 36 34 32 32 32 37 41 45 49 50 52 55 60 76 71 73 78 83 79 82 82 83 84 78 72 77 71 61 54 50 47 56 60
75 71 66 62 57 52 48 45 41 40 38 36 33 33 32 38 41 45 50 52 54 56 58 71 73 72 74 79 85 91 88 82 78 75 67 62 64 55 48 44 46 47 48
76 74 71 67 61 57 52 46 43 43 41 37 35 34 33 38 40 44 51 54 54 55 55 63 77 73 76 79 88 90 88 86 74 74 58 58 62 51 39 32 35 43 37
75 77 74 69 63 58 54 49 48 46 43 40 37 34 34 37 40 44 50 54 54 54 53 58 65 71 72 75 88 97 100 87 81 64 59 67 51 45 33 30 35 34 31
74 74 72 71 65 63 60 54 51 48 44 41 38 36 33 35 40 44 49 51 54 51 49 56 64 61 70 82 87 90 89 88 82 62 76 57 54 39 23 25 30 22 32
71 73 76 73 70 69 62 55 52 50 46 44 40 36 33 34 37 43 48 51 49 46 44 51 57 62 66 71 79 82 80 78 71 67 74 50 48 29 11 12 17 19 15
68 73 77 78 76 71 63 59 54 52 49 45 40 38 34 32 34 39 44 48 44 35 35 45 55 56 63 66 71 73 69 64 58 55 60 47 43 32 18 5 10 13 10
70 72 76 79 77 74 65 61 57 53 52 47 43 40 34 31 33 37 42 45 41 35 37 43 51 51 53 56 57 59 60 59 46 39 43 34 43 45 29 27 5 9 5
77 77 78 78 79 76 68 64 61 58 56 49 44 40 34 30 33 36 40 42 41 33 35 37 40 44 45 46 51 51 48 49 47 34 26 38 37 35 36 35 15 6 9
77 83 83 78 76 75 69 66 65 61 57 51 46 41 35 30 30 33 37 38 40 35 31 28 32 34 37 41 44 44 42 42 40 22 25 37 30 30 14 31 36 24 24
Wind_Direction_850mb
218 223 230 236 242 255 265 271 274 279 286 295 300 306 307 308 312 314 317 316 319 318 314 312 314 311 305 300 295 292 289 287 282 274 267 260 258 257 257 255 251 251 250
217 221 227 235 245 256 266 273 281 287 292 296 300 304 308 312 315 317 314 315 317 320 316 310 311 311 309 302 297 292 290 286 281 279 277 269 261 255 252 256 253 249 249
216 221 223 234 248 260 269 278 284 292 296 305 306 307 309 309 311 312 305 319 329 315 315 319 317 320 316 312 305 299 293 286 279 274 271 271 269 264 254 248 252 254 249
216 218 225 232 244 258 267 276 287 294 300 305 310 312 312 310 309 304 308 305 322 321 319 325 326 317 313 317 309 301 295 292 289 282 275 272 273 275 267 257 247 246 251
215 218 224 235 244 255 268 278 288 296 303 309 314 316 310 305 302 306 302 319 319 320 324 327 326 324 316 312 307 302 297 294 292 296 293 288 284 278 275 268 263 248 243
214 220 225 233 243 252 264 280 291 300 310 313 318 320 311 299 303 197 321 316 325 329 327 329 327 324 318 313 309 305 301 296 293 296 293 290 286 283 277 270 265 263 254
215 219 225 229 239 252 266 280 294 305 313 317 322 329 320 302 259 325 330 328 332 328 335 332 333 327 323 317 312 307 300 295 294 299 294 293 289 282 276 272 262 260 261
216 219 225 230 237 250 265 281 292 302 308 320 333 340 326 313 256 325 332 332 332 336 333 334 333 330 329 328 326 321 313 303 299 296 295 291 290 286 280 275 267 261 259
217 221 224 229 239 250 265 277 288 297 304 316 331 355 330 297 322 325 332 332 330 332 330 331 333 333 330 330 332 331 328 325 320 309 302 296 291 287 286 281 274 270 260
217 220 224 230 237 248 259 272 282 289 294 304 315 324 325 318 317 314 320 327 326 327 327 335 334 333 333 334 332 330 327 322 322 318 312 302 292 287 284 279 276 271 266
217 219 222 228 237 246 255 264 274 281 285 291 302 314 322 324 324 317 314 319 322 325 329 336 340 336 336 335 331 329 326 320 313 311 309 303 294 288 284 280 274 270 268
218 219 221 226 237 248 256 260 268 274 276 280 293 306 315 318 320 318 311 316 318 325 323 337 347 343 335 330 326 326 323 323 319 312 304 298 291 287 284 281 274 269 260
218 219 222 229 239 247 255 260 264 267 270 275 287 300 311 318 319 318 314 315 311 320 326 335 345 339 332 330 327 324 320 321 319 315 313 304 290 284 281 278 273 268 260
224 224 225 229 237 247 255 258 260 264 265 270 282 295 307 314 317 317 314 314 316 315 319 327 337 336 332 330 329 324 320 316 312 315 323 318 297 285 279 274 271 266 262
225 226 227 232 238 245 252 255 258 260 261 266 278 291 304 310 314 316 315 313 307 309 311 316 322 328 329 330 330 326 325 322 318 319 325 323 306 291 281 273 268 264 261
225 227 231 234 239 243 249 254 255 255 257 263 274 286 298 306 314 314 316 310 303 300 281 305 315 320 327 329 336 336 333 328 326 328 323 321 313 299 288 276 264 266 262
229 231 234 237 240 243 248 251 252 251 254 259 269 280 295 304 312 315 313 310 304 302 289 304 311 319 323 329 335 340 335 334 332 326 322 321 318 299 291 279 270 266 265
231 234 236 238 239 241 245 249 249 251 252 257 265 277 292 302 311 313 313 311 306 304 296 296 309 316 321 330 337 334 333 335 331 331 324 321 320 311 290 280 272 269 267
232 234 236 237 238 241 244 247 247 247 249 253 261 274 289 299 309 313 313 314 309 301 296 296 304 316 322 333 329 330 333 334 337 339 334 327 322 319 306 294 287 287 267
235 236 237 239 239 241 243 244 244 244 244 249 257 270 283 298 307 313 315 317 311 301 297 300 302 313 323 326 328 330 331 337 339 341 340 336 326 322 304 301 294 272 267
238 240 240 240 239 240 241 242 242 242 241 246 254 265 280 296 306 315 316 319 313 304 299 304 305 314 321 325 327 329 329 334 340 344 338 345 339 330 302 279 298 285 255
239 239 239 239 241 241 242 242 240 239 239 243 251 262 277 293 308 315 318 319 314 302 298 298 305 307 314 320 325 328 330 336 337 347 342 351 346 338 340 280 286 278 300
242 241 241 240 241 241 240 240 238 238 237 241 248 259 274 291 306 313 317 318 317 304 279 286 291 301 312 324 326 328 330 331 332 340 337 349 3 15 35 139 250 250 254
242 244 243 242 241 241 238 238 236 235 236 239 245 256 270 288 304 312 317 318 324 317 299 284 291 306 317 323 324 329 328 329 333 336 340 333 360 12 40 73 67 126 209
245 245 245 242 240 239 235 234 232 233 233 236 242 252 265 283 299 312 317 321 324 324 309 296 299 308 317 323 328 329 331 337 341 347 346 338 341 354 24 58 69 92 92
247 248 247 244 241 238 234 233 232 231 231 233 239 247 258 275 294 308 315 323 325 325 318 309 309 309 320 332 330 332 340 344 345 343 342 339 335 0 7 35 77 101 89